16:20
Airports
History
Links
Donate
Help keep this website running!
PayPal
Bitcoin
This page is community maintained. The information is intended for PC simulator navigation or reference.
Always use approved charts for navigation.
8H3
Blickhan Lndg Area
Blickhan Lndg Area (8H3)
Quincy, Illinois, United States (62305)
4
Lat/Lng:40° 0' 30.16" N / 91° 22' 55.54" W
40.008379 / -91.382094
Elevation:635'ft / 194mMSL
ID / ICAO:8H3
Runways:1
Longest:09-27
Grass 676m / 2,218ft
Nearby Weather15:54 GMT 2018-02-24
Nearby weather at KUIN, Quincy Rgnl-baldwin Field located 10.9 nautical miles from 8H3
Altimeter: 29.96
Visibility: 7.0 statute miles
Wind: 15 knots (from 070°)
Temp: 2°c / 36°f
Humidity: 93.1%

METAR: KUIN 241554Z AUTO 07015KT 7SM BKN006 OVC018 02/01 A2996 RMK AO2 RAB12E22 SLP151 P0000 T00220011 $

(Powered by phpweather)
Nearby VORs <50NM
Nearby NDBs
Runway 09 / 27
Dimensions:675.9 x 45.7m 2218' x 150'ft
Surface:Grass
Runway 09 [A]Runway 27 [B]
Heading:091°TH 271°TH
Lat:
Lng:
40° 0' 30.55"N
91° 23' 9.71"W
40° 0' 29.79"N
91° 22' 41.36"W
User Notes and Comments
40° 0' 30.16" N / 91° 22' 55.54" W
Distance To
Airport ID:
Nearby Airports
4 Mast Field 3.4 NM
IS45 SE 130°
4 Schnelle 6.3 NM
07H N 352°
4 Haerr Field 8.2 NM
K04 WSW 240°
4 Cramm Landing Area 8.2 NM
4H8 NE 39°
4 Seigfried Halfpap 9.0 NM
8H2 SSE 158°
(C) Quincy Rgnl-baldwin Field 10.9 NM
KUIN ( WX ) ESE 114°
4 The Adwell Corporation 11.6 NM
5H1 NNW 327°
VFR Chart
Flight Planning at SkyVector.com